Location: Munkebjergskolens Observatorium
(55.3864°N, 10.3987°E)
Time: 09:15:15
(UTC+02:00)

DUCHIFAT 1 - Visible Passes

Search period start: 01 April 2023 00:00
Search period end: 11 April 2023 00:00
Orbit: 569 x 586 km, 98.1° (Epoch: 31 March)

Date Brightness Start Highest point End Pass type
(mag) Time Alt. Az. Time Alt. Az. Time Alt. Az.
01 Apr ? 03:25:13 10° NE 03:27:31 14° E 03:29:46 10° ESE visible
01 Apr ? 04:59:13 10° NNE 05:03:20 84° WNW 05:06:13 19° SSW visible
02 Apr ? 03:29:10 10° NE 03:31:39 16° E 03:34:08 10° SE visible
02 Apr ? 05:03:20 10° NNE 05:07:25 77° WNW 05:10:31 17° SSW visible
03 Apr ? 03:33:06 10° NE 03:35:47 17° E 03:38:27 10° SE visible
03 Apr ? 05:07:25 10° NNE 05:11:30 71° WNW 05:14:47 15° SSW visible
04 Apr ? 03:37:02 10° NE 03:39:52 18° E 03:42:42 10° SE visible
04 Apr ? 05:11:29 10° N 05:15:32 66° WNW 05:19:00 14° SSW visible
05 Apr ? 03:40:56 10° NE 03:43:56 19° E 03:46:54 10° SE visible
05 Apr ? 05:15:31 10° N 05:19:33 61° WNW 05:23:12 12° SSW visible
06 Apr ? 03:44:50 10° NE 03:47:58 21° E 03:51:04 10° SE visible
06 Apr ? 05:19:30 10° N 05:23:31 56° WNW 05:27:22 11° SW visible
07 Apr ? 03:48:42 10° NE 03:51:57 22° E 03:55:11 10° SE visible
07 Apr ? 05:23:29 10° N 05:27:28 52° WNW 05:31:25 10° SW visible
08 Apr ? 03:52:34 10° NE 03:55:55 24° E 03:59:15 10° SSE visible
08 Apr ? 05:27:26 10° N 05:31:23 48° WNW 05:35:17 10° SW visible
09 Apr ? 03:56:24 10° NE 03:59:51 26° E 04:03:17 10° SSE visible
09 Apr ? 05:31:22 10° N 05:35:16 44° WNW 05:39:08 10° SW visible
10 Apr ? 04:00:13 10° NE 04:03:45 28° E 04:07:16 10° SSE visible
10 Apr ? 05:35:16 10° N 05:39:07 41° WNW 05:42:57 10° SW visible
